STARLINK-1689 (46372 NORAD) Tracking and Keplerian Element Data

This shows tracking and keplerian element data for the satellite.

Feedback or suggestion? Click here.




ElementValue
Catalog46372
NameSTARLINK-1689
Epoch Orbit178
Epoch Day268.91668981
Epoch Year2020
RAAN324.5007
Inclination53.0004
Eccentricity0.0001221
Argument of Perigee63.4712
Mean Anonmoly135.2332
Mean Motion15.62798724
Decay Rate-0.00066069
L11 46372U 20062AZ 20268.91668981 -.00066069 00000-0 -72028-3 0 9999
L22 46372 53.0004 324.5007 0001221 63.4712 135.2332 15.62798724 1782

Live tracking and technical data element details for STARLINK-1689 (NORAD 46372). STARLINK-1689 can be tracked NOW for your location showing map with azimuth and elevation plus other details from your city location.

Track the satellite on the map from your city or location and see movement details for azimuth, elevation, latitude, longitude, range, height, and movement on the map or in text.







IsCatalogInMostPopularTable: catalog: 46372, numindb: 3
Update: records affected: 1



GetName: 46372 STARLINK-1689

Hit Count: updated at: Mon, 28 Sep 2020 15:12:17 GMT